Albertville, AL

7:59 AM CST on November 22, 2017 (GMT -0600)
Albertville

Weather History for K8A0 - November, 2013

Change the Weather History Date:

Tuesday, November 5, 2013

  Actual Average (KGAD) Record (KGAD)
Temperature  
Mean Temperature 54 °F -  
Max Temperature 62 °F 65 °F 84 °F (1935)
Min Temperature 46 °F 42 °F 29 °F (1945)
Degree Days  
Heating Degree Days 11    
Growing Degree Days 4 (Base 50)    
Moisture  
Dew Point 8 °F    
Average Humidity 18    
Maximum Humidity 27    
Minimum Humidity 5    
Precipitation  
Precipitation 0.00 in - - ()
Sea Level Pressure  
Sea Level Pressure 30.34 in    
Wind  
Wind Speed 6 mph (ESE)    
Max Wind Speed 13 mph    
Max Gust Speed 23 mph    
Visibility 10 miles    
Events      
Averages and records for this station are not official NWS values.
T = Trace of Precipitation, MM = Missing Value Source: NWS Daily Summary

Daily Weather History Graph

Daily Weather History Graph

Search for Another Location

Airport or City:

Trip Planner

Search our weather history database for the weather conditions in past years. The results will help you decide how hot, cold, wet, or windy it might be!

Date:

Astronomy

Nov. 05, 2013 Rise Set
Actual Time 6:08 AM CST 4:48 PM CST
Civil Twilight 5:42 AM CST 5:14 PM CST
Nautical Twilight 5:12 AM CST 5:43 PM CST
Astronomical Twilight 4:43 AM CST 6:13 PM CST
Moon 8:19 AM CST (11/5) 6:52 PM CST (11/5)
Length of Visible Light 11h 31m
Length of Day
10h 39m
Waxing Crescent, 7% of the Moon is Illuminated
Nov 5
Waxing Crescent
Nov 9
First Quarter
Nov 17
Full
Nov 25
Last Quarter
Dec 2
New

Hourly Weather History & Observations

Time (CST) Temp. Windchill Dew Point Humidity Pressure Visibility Wind Dir Wind Speed Gust Speed Precip Events Conditions
12:15 AM 50.0 °F - 10.4 °F 20% 30.36 in 10.0 mi East 3.5 mph - N/A   Clear
12:35 AM 50.0 °F - 10.4 °F 20% 30.37 in 10.0 mi East 8.1 mph - N/A   Clear
12:55 AM 50.0 °F - 10.4 °F 20% 30.37 in 10.0 mi East 5.8 mph - N/A   Clear
1:15 AM 50.0 °F - 12.2 °F 22% 30.37 in 10.0 mi East 3.5 mph - N/A   Clear
1:35 AM 48.2 °F - 12.2 °F 24% 30.37 in 10.0 mi ESE 4.6 mph - N/A   Clear
1:55 AM 48.2 °F - 12.2 °F 24% 30.37 in 10.0 mi ESE 5.8 mph - N/A   Clear
2:15 AM 48.2 °F - 12.2 °F 24% 30.36 in 10.0 mi ESE 6.9 mph - N/A   Clear
2:35 AM 48.2 °F - 12.2 °F 24% 30.36 in 10.0 mi ESE 5.8 mph - N/A   Clear
2:55 AM 48.2 °F - 12.2 °F 24% 30.36 in 10.0 mi ESE 6.9 mph - N/A   Clear
3:15 AM 48.2 °F - 12.2 °F 24% 30.36 in 10.0 mi East 9.2 mph - N/A   Clear
3:35 AM 46.4 °F 43.5 °F 14.0 °F 27% 30.36 in 10.0 mi ESE 5.8 mph - N/A   Clear
3:55 AM 46.4 °F 43.5 °F 14.0 °F 27% 30.36 in 10.0 mi ESE 5.8 mph - N/A   Clear
4:15 AM 46.4 °F 42.9 °F 14.0 °F 27% 30.36 in 10.0 mi ESE 6.9 mph - N/A   Clear
4:35 AM 46.4 °F 42.9 °F 14.0 °F 27% 30.37 in 10.0 mi East 6.9 mph - N/A   Clear
4:55 AM 46.4 °F 44.3 °F 14.0 °F 27% 30.36 in 10.0 mi ESE 4.6 mph - N/A   Clear
5:15 AM 46.4 °F 42.4 °F 14.0 °F 27% 30.37 in 10.0 mi ESE 8.1 mph - N/A   Clear
5:35 AM 46.4 °F 42.4 °F 14.0 °F 27% 30.37 in 10.0 mi ESE 8.1 mph - N/A   Clear
5:55 AM 46.4 °F 41.9 °F 14.0 °F 27% 30.37 in 10.0 mi ESE 9.2 mph 17.3 mph N/A   Clear
6:15 AM 46.4 °F 41.9 °F 14.0 °F 27% 30.38 in 10.0 mi East 9.2 mph 18.4 mph N/A   Clear
6:35 AM 46.4 °F 42.4 °F 12.2 °F 25% 30.39 in 10.0 mi ESE 8.1 mph 18.4 mph N/A   Scattered Clouds
6:55 AM 48.2 °F - 12.2 °F 24% 30.39 in 10.0 mi East 10.4 mph 17.3 mph N/A   Overcast
7:15 AM 48.2 °F - 12.2 °F 24% 30.40 in 10.0 mi ESE 8.1 mph 17.3 mph N/A   Overcast
7:35 AM 48.2 °F - 12.2 °F 24% 30.40 in 10.0 mi ESE 9.2 mph 18.4 mph N/A   Overcast
7:55 AM 50.0 °F - 10.4 °F 20% 30.40 in 10.0 mi ESE 6.9 mph 20.7 mph N/A   Overcast
8:15 AM 50.0 °F - 8.6 °F 19% 30.39 in 10.0 mi East 12.7 mph 23.0 mph N/A   Overcast
8:35 AM 50.0 °F - 8.6 °F 19% 30.40 in 10.0 mi East 9.2 mph 17.3 mph N/A   Overcast
8:55 AM 50.0 °F - 5.0 °F 16% 30.41 in 10.0 mi ESE 9.2 mph 17.3 mph N/A   Overcast
9:15 AM 51.8 °F - 5.0 °F 15% 30.41 in 10.0 mi ESE 8.1 mph - N/A   Overcast
9:35 AM 51.8 °F - 3.2 °F 14% 30.41 in 10.0 mi ESE 9.2 mph 18.4 mph N/A   Overcast
9:55 AM 51.8 °F - 3.2 °F 14% 30.40 in 10.0 mi East 11.5 mph 18.4 mph N/A   Overcast
10:15 AM 53.6 °F - 1.4 °F 12% 30.40 in 10.0 mi ESE 9.2 mph - N/A   Overcast
10:35 AM 53.6 °F - -0.4 °F 11% 30.40 in 10.0 mi East 6.9 mph - N/A   Overcast
10:55 AM 53.6 °F - -0.4 °F 11% 30.39 in 10.0 mi East 6.9 mph - N/A   Overcast
11:15 AM 53.6 °F - -2.2 °F 10% 30.38 in 10.0 mi ESE 6.9 mph - N/A   Overcast
11:35 AM 53.6 °F - -2.2 °F 10% 30.38 in 10.0 mi ESE 9.2 mph - N/A   Overcast
11:55 AM 55.4 °F - 1.4 °F 11% 30.37 in 10.0 mi Calm Calm - N/A   Overcast
12:15 PM 55.4 °F - 1.4 °F 11% 30.36 in 10.0 mi ENE 6.9 mph - N/A   Overcast
12:35 PM 55.4 °F - -0.4 °F 10% 30.35 in 10.0 mi East 6.9 mph - N/A   Overcast
12:55 PM 59.0 °F - -5.8 °F 7% 30.34 in 10.0 mi ESE 5.8 mph - N/A   Overcast
1:15 PM 59.0 °F - -4.0 °F 8% 30.32 in 10.0 mi East 9.2 mph - N/A   Overcast
1:35 PM 59.0 °F - -5.8 °F 7% 30.32 in 10.0 mi East 6.9 mph - N/A   Overcast
1:55 PM 60.8 °F - -7.6 °F 6% 30.31 in 10.0 mi East 5.8 mph - N/A   Overcast
2:15 PM 60.8 °F - -9.4 °F 6% 30.30 in 10.0 mi East 8.1 mph - N/A   Overcast
2:35 PM 62.6 °F - -9.4 °F 5% 30.30 in 10.0 mi ESE 3.5 mph - N/A   Overcast
2:55 PM 60.8 °F - -11.2 °F 5% 30.29 in 10.0 mi ESE 8.1 mph - N/A   Overcast
3:15 PM 60.8 °F - -4.0 °F 7% 30.28 in 10.0 mi East 4.6 mph - N/A   Scattered Clouds
3:35 PM 60.8 °F - 3.2 °F 10% 30.29 in 10.0 mi ESE 5.8 mph - N/A   Clear
3:55 PM 60.8 °F - 5.0 °F 11% 30.29 in 10.0 mi East 3.5 mph - N/A   Clear
4:15 PM 59.0 °F - 10.4 °F 15% 30.29 in 10.0 mi East 5.8 mph - N/A   Clear
4:35 PM 59.0 °F - 10.4 °F 15% 30.29 in 10.0 mi East 4.6 mph - N/A   Clear
4:55 PM 57.2 °F - 12.2 °F 17% 30.29 in 10.0 mi East 3.5 mph - N/A   Clear
5:15 PM 55.4 °F - 12.2 °F 18% 30.28 in 10.0 mi East 3.5 mph - N/A   Clear
5:35 PM 55.4 °F - 14.0 °F 20% 30.29 in 10.0 mi East 3.5 mph - N/A   Scattered Clouds
5:55 PM 53.6 °F - 17.6 °F 24% 30.29 in 10.0 mi East 3.5 mph - N/A   Scattered Clouds
6:15 PM 53.6 °F - 17.6 °F 24% 30.29 in 10.0 mi East 3.5 mph - N/A   Clear
6:35 PM 53.6 °F - 12.2 °F 19% 30.29 in 10.0 mi East 5.8 mph - N/A   Clear
6:55 PM 53.6 °F - 12.2 °F 19% 30.29 in 10.0 mi East 5.8 mph - N/A   Clear
7:15 PM 55.4 °F - 12.2 °F 18% 30.29 in 10.0 mi East 5.8 mph - N/A   Scattered Clouds
7:35 PM 53.6 °F - 12.2 °F 19% 30.29 in 10.0 mi East 5.8 mph - N/A   Scattered Clouds
7:55 PM 55.4 °F - 10.4 °F 17% 30.29 in 10.0 mi East 6.9 mph - N/A   Mostly Cloudy
8:15 PM 55.4 °F - 12.2 °F 18% 30.29 in 10.0 mi ESE 6.9 mph - N/A   Mostly Cloudy
8:35 PM 55.4 °F - 10.4 °F 17% 30.30 in 10.0 mi ESE 5.8 mph - N/A   Mostly Cloudy
8:55 PM 53.6 °F - 10.4 °F 18% 30.30 in 10.0 mi ESE 5.8 mph - N/A   Scattered Clouds
9:15 PM 55.4 °F - 8.6 °F 15% 30.29 in 10.0 mi East 6.9 mph - N/A   Mostly Cloudy
9:35 PM 55.4 °F - 8.6 °F 15% 30.30 in 10.0 mi ESE 6.9 mph - N/A   Scattered Clouds
9:55 PM 55.4 °F - 8.6 °F 15% 30.30 in 10.0 mi ESE 5.8 mph - N/A   Scattered Clouds
10:15 PM 53.6 °F - 10.4 °F 18% 30.29 in 10.0 mi ESE 5.8 mph - N/A   Mostly Cloudy
10:35 PM 53.6 °F - 12.2 °F 19% 30.29 in 10.0 mi ESE 6.9 mph - N/A   Scattered Clouds
10:55 PM 53.6 °F - 12.2 °F 19% 30.29 in 10.0 mi East 8.1 mph - N/A   Clear
11:15 PM 51.8 °F - 14.0 °F 22% 30.28 in 10.0 mi ESE 8.1 mph - N/A   Scattered Clouds
11:35 PM 51.8 °F - 17.6 °F 26% 30.28 in 10.0 mi East 4.6 mph - N/A   Scattered Clouds
11:55 PM 51.8 °F - 17.6 °F 26% 30.28 in 10.0 mi East 5.8 mph - N/A   Clear